SCP
0 0 0 0 0 0 0 0 0 0 0 0 0 0 0 0 0 0 0 0 0 0 0 0 0 0 0 0 -0 -0 -0 0 -0 -0 -0 0 0 0 0 0 0 0 0 0
0 0 0 0 0 0 0 0 0 0 0 0 0 0 0 0 0 0 0 0 0 0 0 0 0 0 0 -0 -0 -0 -0 -0 -0 -0 -0 0 0 0 0 0 0 0 0 0
0 0 0 0 0 0 0 0 0 0 0 0 0 0 0 0 0 0 0 0 0 0 0 0 0 0 -0 -0 -0 -0 -0 -0 -0 -0 0 0 0 0 0 0 0 0 0 0
0 0 0 0 0 0 0 0 0 0 0 0 0 0 0 0 0 0 0 0 0 0 0 0 0 0 0 0 0 -0 -0 -0 0 0 0 0 0 0 0 0 0 0 0 0
0 0 0 0 0 0 0 0 0 0 0 0 0 0 0 0 0 0 0 0 0 0 0 0 0 0 0 0 0 0 -0 0 0 0 0 0 0 0 0 0 0 0 0 0
0 0 0 0 0 0 0 0 0 0 0 0 0 0 0 0 0 0 0 0 0 0 0 0 0 0 0 0 0 0 0 0 0 0 0 0 0 0 0 0 0 0 0 0
0 0 0 0 0 0 0 0 0 0 0 0 0 0 0 0 0 0 0 0 0 0 0 0 0 0 0 0 0 0 0 0 0 0 0 0 0 0 0 0 0 0 0 0
0 0 0 0 0 0 0 0 0 0 0 0 0 0 0 0 0 0 0 0 0 0 0 0 0 0 0 0 0 0 0 0 0 0 0 0 0 0 0 0 0 0 0 0
0 0 0 0 0 0 0 0 0 0 0 0 0 0 0 0 0 0 0 0 0 0 0 0 0 0 0 0 0 0 0 0 0 0 0 0 0 0 0 0 0 0 0 0
0 0 0 0 0 0 0 0 0 0 0 0 0 0 0 0 0 0 0 0 0 0 0 0 0 0 0 0 0 0 0 0 0 0 0 0 0 0 0 0 0 0 0 0
0 0 0 0 0 0 0 0 0 0 0 0 0 0 0 0 0 0 0 0 0 0 0 0 0 0 0 0 0 0 0 0 0 -0 -0 0 0 0 0 0 0 0 0 0
0 0 0 0 0 0 0 0 0 0 0 0 0 0 0 0 0 0 0 0 0 0 0 0 0 0 0 0 0 0 0 0 0 -0 -0 0 0 0 0 0 0 0 0 0
0 0 0 0 0 0 0 0 0 0 0 0 0 0 0 0 0 0 0 0 0 0 0 0 0 0 0 0 0 0 0 0 0 -0 -0 0 0 0 0 -0 -0 -0 -0 0
0 0 0 0 0 0 0 0 0 0 0 0 0 0 0 0 0 0 0 0 0 0 0 0 0 0 0 0 0 0 0 0 0 0 0 0 0 0 0 -0 -0 -0 -0 -0
0 0 0 0 0 0 0 0 0 0 0 0 0 0 0 0 0 0 0 0 0 0 0 0 0 0 0 0 0 0 0 0 0 0 0 0 0 0 0 0 -0 -0 -0 -0
0 0 0 0 0 0 0 0 0 0 0 0 0 0 0 0 0 0 0 0 0 0 0 0 0 0 0 0 0 0 0 0 0 0 -0 0 0 0 0 0 0 -0 -0 -0
0 0 0 0 0 0 0 0 0 0 0 0 0 0 0 0 0 0 0 0 0 0 0 0 0 0 0 0 0 0 0 0 0 0 0 0 0 0 0 0 0 -0 -0 -0
0 0 0 0 0 0 0 0 0 0 0 0 0 0 0 0 0 0 -0 -0 -0 -0 -0 0 0 0 0 0 0 0 0 0 0 0 0 0 0 0 0 0 0 -0 -0 0
0 0 0 0 0 0 0 0 0 0 0 0 0 0 0 0 0 -0 -0 -0 -0 0 0 0 0 0 0 0 0 0 0 0 0 0 0 0 0 0 0 0 0 0 0 0
0 0 0 0 0 0 0 0 0 0 0 0 0 0 0 0 0 0 0 0 0 0 0 0 0 0 0 0 0 0 0 0 0 0 0 0 0 0 0 0 0 0 0 0
0 0 0 0 0 0 0 0 0 0 0 0 0 0 0 0 0 0 0 0 0 0 0 0 0 0 0 0 0 0 0 0 0 0 0 0 0 0 0 0 0 0 0 0
0 0 0 0 0 0 0 0 0 0 0 0 0 0 0 0 0 0 0 0 0 0 0 0 0 0 0 0 0 0 0 0 0 0 0 0 0 0 0 0 0 0 0 0
0 0 0 0 0 0 0 0 0 0 0 0 0 0 0 0 0 0 0 0 0 0 0 0 0 0 0 0 0 0 0 0 0 0 0 0 0 0 0 0 0 0 0 0
0 0 0 0 0 0 0 0 0 0 0 0 0 0 0 0 0 0 0 0 0 0 0 0 0 0 0 0 0 0 0 0 0 0 0 0 0 0 0 0 0 0 0 0
0 0 0 0 0 0 0 0 0 0 0 0 0 0 0 0 0 0 0 0 0 0 0 0 0 0 0 0 0 0 0 0 0 0 0 0 0 0 0 0 0 0 0 0
0 0 0 0 0 0 0 0 0 0 0 0 0 0 0 0 0 0 0 0 0 0 0 0 0 0 0 0 0 0 0 0 0 0 0 0 0 0 0 0 0 0 0 0
0 0 0 0 0 0 0 0 0 0 0 0 0 0 0 0 0 0 0 0 0 0 0 0 0 0 0 0 0 0 0 0 0 0 0 0 0 0 0 0 0 0 0 0
Wind_Speed
3 2 1 1 1 1 2 3 4 4 6 9 10 11 12 12 12 12 11 11 11 10 9 9 9 9 9 9 8 8 9 9 8 7 7 7 7 7 7 7 7 6 6 6
1 1 0 1 2 1 1 2 4 6 4 6 10 10 11 11 12 12 12 12 11 11 10 9 8 8 8 7 7 7 8 8 7 7 7 7 6 6 7 6 6 6 6 6
1 2 2 2 3 0 2 2 4 4 5 12 12 12 12 12 12 12 13 12 11 10 9 8 7 7 7 6 6 7 7 6 6 6 7 6 6 6 6 5 4 5 5 5
1 1 2 4 1 4 6 3 2 5 10 11 10 9 8 9 12 13 13 12 10 8 8 7 7 6 6 6 6 7 6 6 5 6 6 5 5 5 4 3 3 3 3 4
3 1 3 3 1 4 4 2 2 9 12 12 14 10 7 7 9 11 11 11 9 8 7 7 7 7 7 6 6 6 5 5 4 5 5 5 4 3 2 2 2 2 3 3
3 3 4 4 1 4 5 1 4 9 13 14 10 6 6 9 11 12 11 10 8 8 8 7 6 7 7 6 5 5 4 4 4 4 4 4 3 2 2 2 2 3 3 3
3 2 5 2 2 3 1 4 7 9 11 9 4 5 11 13 11 11 11 10 9 8 7 6 6 7 7 5 4 3 4 4 4 4 4 3 2 2 2 3 4 3 4 3
3 2 5 2 3 3 4 3 8 9 8 8 11 13 13 13 13 12 11 10 9 8 6 5 6 7 7 5 3 4 5 5 4 3 2 3 4 3 4 4 4 3 3 3
5 4 2 2 0 1 4 8 7 8 11 14 14 14 13 12 12 11 10 9 7 8 7 5 5 6 7 4 4 5 5 5 4 4 4 3 3 4 3 3 3 2 2 2
2 2 2 3 3 4 6 7 10 12 14 14 15 14 13 12 10 9 8 8 7 8 8 5 4 5 5 5 5 6 5 4 3 4 3 3 3 2 3 2 2 2 1 1
3 2 3 4 4 7 10 13 14 12 11 13 16 15 13 11 10 9 7 6 6 7 7 6 5 5 5 5 6 5 4 3 3 3 3 3 3 2 2 1 1 1 1 1
7 8 6 5 5 8 12 12 14 14 12 11 12 13 11 10 8 8 8 7 7 7 7 6 5 5 4 4 5 5 4 3 2 2 2 2 2 2 2 1 0 2 3 2
6 7 7 9 7 7 10 11 12 13 13 12 10 11 11 8 7 8 8 8 7 7 6 5 5 4 3 4 5 5 4 3 2 2 2 2 2 1 1 2 2 1 2 2
12 12 10 6 7 9 12 13 12 12 11 11 10 10 10 8 8 8 8 7 6 6 5 5 4 3 3 4 4 4 3 3 3 2 2 2 2 2 1 1 1 2 3 4
7 8 11 11 11 11 12 13 14 12 10 9 9 10 10 10 8 7 6 6 6 6 5 4 4 2 3 4 4 4 3 2 2 2 2 2 2 2 1 1 0 1 2 3
11 14 16 15 14 13 13 14 13 11 10 9 9 9 9 9 8 7 6 7 7 5 4 4 4 3 3 4 4 3 2 3 3 2 2 2 2 2 2 1 1 0 1 2
16 14 14 15 15 13 12 12 12 11 10 10 9 9 9 9 7 6 5 5 5 5 4 4 4 3 4 4 4 3 2 2 3 2 2 2 2 2 2 2 1 0 1 1
14 16 16 18 16 14 12 12 11 11 10 9 10 10 9 9 8 6 5 5 4 3 2 3 3 3 4 4 4 3 3 2 2 2 2 2 2 2 2 2 1 1 1 1
13 14 14 14 14 13 13 12 11 10 10 11 11 10 8 7 7 6 5 6 5 4 3 2 4 4 3 4 4 3 3 3 2 2 2 3 2 2 2 2 1 0 0 1
12 14 14 13 12 12 12 11 11 10 10 10 10 9 7 6 7 7 6 5 4 4 4 4 4 3 3 3 4 3 3 3 4 3 3 2 2 2 1 1 1 1 1 1
15 15 15 14 13 12 12 13 12 11 10 10 11 10 8 7 6 6 5 3 3 3 4 6 4 3 3 3 4 3 3 3 4 4 3 3 2 2 1 1 1 1 1 1
15 15 15 14 13 11 10 11 11 12 11 10 9 9 8 7 6 5 4 4 4 6 5 4 3 4 5 5 3 3 3 4 4 3 3 3 3 2 2 2 2 2 2 2
14 14 14 14 14 12 11 10 11 12 11 10 10 9 8 7 6 5 4 3 3 7 5 4 5 7 7 4 3 3 3 4 4 4 4 4 4 3 3 3 2 2 2 2
13 14 13 12 12 12 12 10 10 9 10 9 9 9 8 6 4 4 3 5 8 8 5 5 8 8 7 3 3 3 3 4 4 4 4 4 3 3 3 3 3 3 3 3
13 13 13 14 13 11 11 10 9 8 9 7 7 8 7 6 6 5 5 5 8 8 4 6 8 9 5 3 3 3 3 4 4 4 4 4 4 4 4 4 4 4 3 3
13 12 12 12 10 9 9 9 8 7 8 6 5 5 5 4 4 4 4 6 7 8 5 4 5 6 4 4 4 4 4 4 4 5 5 5 5 5 5 5 6 5 4 4
11 9 8 7 7 8 9 9 9 9 9 8 7 6 6 5 5 5 6 5 5 6 5 5 5 5 5 5 4 4 4 4 4 5 5 5 5 5 6 7 5 4 4 4
Wind_Direction
235 251 226 264 292 177 168 188 183 180 155 163 151 141 137 134 129 126 122 118 115 110 105 100 96 92 91 90 87 90 91 87 84 83 83 84 83 82 81 79 78 74 70 61
349 343 283 328 351 51 99 107 118 116 110 127 125 126 134 138 136 132 129 126 123 119 117 114 111 107 100 96 95 95 94 93 91 88 84 83 84 84 83 78 72 69 65 62
268 317 12 324 313 90 91 85 145 158 149 139 139 146 147 145 139 135 133 132 130 127 124 122 119 116 109 104 100 96 95 96 96 94 89 86 91 87 85 80 76 74 67 64
124 40 253 265 320 126 107 65 70 115 131 138 131 121 121 135 137 135 135 133 131 126 120 115 113 109 107 105 102 99 96 96 100 101 97 92 89 87 84 84 83 79 72 64
121 141 294 290 175 148 122 78 103 129 127 121 118 105 99 115 126 132 132 131 128 124 121 118 117 116 111 106 105 105 105 104 107 109 105 98 93 88 85 93 86 82 82 69
129 156 238 260 223 146 106 92 155 144 142 141 136 134 142 134 125 123 122 123 122 119 118 118 121 119 113 114 114 117 120 114 107 106 106 102 100 94 91 104 99 94 78 62
148 198 261 281 147 120 144 233 157 149 147 144 126 128 132 130 124 124 123 124 124 124 126 131 130 122 119 121 128 132 118 105 97 98 102 102 90 77 90 94 89 78 71 50
143 186 254 351 131 162 202 127 128 131 128 115 113 116 124 126 127 128 126 127 128 126 124 127 130 127 127 135 138 124 114 102 93 91 94 97 91 79 78 90 87 69 56 39
173 204 263 337 70 95 131 121 122 126 125 126 125 128 128 128 130 129 129 129 128 129 126 125 131 133 135 144 133 122 112 104 95 82 71 77 92 94 81 79 84 70 54 27
101 24 33 46 61 72 99 113 121 127 130 131 129 131 129 130 130 128 126 127 127 127 127 127 130 134 136 136 128 120 117 111 103 93 81 69 72 83 92 91 87 80 64 29
105 127 86 47 76 102 101 108 114 117 123 130 131 132 132 132 132 129 125 121 125 128 129 130 128 125 128 129 126 121 120 118 108 102 103 89 75 72 93 112 173 156 166 181
191 185 154 152 133 123 119 121 125 122 118 123 129 130 129 128 128 128 127 124 124 126 130 132 130 129 132 137 135 130 125 127 130 128 122 117 105 62 41 61 49 187 200 206
142 130 116 121 116 113 117 122 124 124 127 125 123 127 126 123 125 125 127 133 138 141 140 136 134 136 143 141 142 143 149 154 150 147 152 152 146 132 41 357 359 324 289 280
122 113 109 118 122 118 118 117 113 111 115 120 123 124 121 118 124 131 139 144 140 136 135 136 137 147 148 139 137 142 146 159 165 171 173 174 174 170 155 120 14 347 355 10
117 115 125 120 116 116 119 120 118 117 117 117 125 128 128 130 135 140 139 132 127 129 136 139 144 159 141 137 140 145 150 158 161 162 161 163 159 155 154 150 113 353 350 4
111 112 120 126 131 132 132 132 132 133 132 130 131 133 134 134 133 131 131 134 135 146 155 154 167 175 150 143 139 137 154 169 156 150 149 146 149 151 148 144 138 55 358 346
131 138 141 143 145 146 145 144 143 142 140 139 140 134 128 124 124 130 140 148 150 158 163 167 178 164 149 150 147 145 144 147 143 133 144 151 153 156 155 152 160 164 323 314
151 152 154 153 152 150 145 143 143 143 143 143 138 134 136 140 147 153 149 133 122 122 159 175 167 152 150 153 150 149 151 150 148 147 141 143 146 145 146 153 161 150 341 352
134 139 142 146 148 147 147 147 147 144 140 141 143 147 150 152 151 147 139 137 144 164 199 182 161 149 152 165 155 151 152 152 143 135 133 136 130 132 140 147 153 184 291 323
137 140 141 141 142 144 146 147 145 143 145 145 143 143 146 151 149 147 148 162 187 189 176 159 150 152 164 169 158 156 161 160 152 145 139 139 143 146 149 158 172 228 265 270
145 146 147 148 147 148 149 149 149 150 150 150 151 157 160 159 154 148 150 182 221 179 163 163 158 164 167 161 152 151 159 159 158 159 159 160 162 167 179 194 217 238 249 252
151 151 153 152 150 150 152 151 151 151 151 155 157 155 152 155 159 161 182 195 189 171 163 166 172 180 173 156 151 160 165 167 166 165 168 174 179 189 205 218 231 239 240 239
154 154 155 156 156 153 149 153 155 157 159 162 163 163 165 169 166 166 200 209 170 172 169 177 184 182 170 153 159 168 173 177 179 182 187 190 195 200 209 221 226 230 232 232
153 155 155 152 146 148 156 163 160 161 163 165 169 169 163 162 181 202 190 173 175 176 180 187 186 182 167 162 171 177 186 189 189 190 194 197 200 205 213 219 225 229 229 226
154 151 149 151 157 165 166 158 153 155 159 166 172 174 173 173 178 190 177 177 180 177 181 190 187 179 170 175 186 195 200 203 199 193 198 202 209 213 217 220 223 226 224 222
155 158 162 167 166 162 161 162 164 166 167 169 176 179 177 175 172 160 167 179 180 182 182 178 177 180 183 192 200 206 210 212 210 207 208 211 216 218 223 225 225 224 223 222
149 150 150 150 154 158 162 167 170 174 176 175 178 182 179 175 172 173 173 174 177 184 186 184 184 187 192 200 207 212 213 212 211 211 211 212 214 219 223 223 223 220 218 219